Regional Weather Roundup
Issued by NWS

Home | Current Version | Previous Version | Graphics & Text | Print | Product List | Glossary On
Versions: 1 2 3 4 5 6 7 8 9 10 11 12 13 14 15 16 17 18 19 20 21 22 23 24 25 26 27 28 29 30 31 32 33 34 35 36 37 38 39 40 41 42 43 44 45 46 47 48 49 50
000
ASUS43 KLOT 201306
RWRIL

ILLINOIS REGIONAL WEATHER ROUNDUP
NATIONAL WEATHER SERVICE CHICAGO/ROMEOVILLE IL
800 AM CDT MON OCT 20 2014

NOTE: "FAIR" INDICATES FEW OR NO CLOUDS BELOW 12,000 FEET WITH NO
SIGNIFICANT WEATHER AND/OR OBSTRUCTIONS TO VISIBILITY.

* THESE STATIONS ARE NOT UNDER NWS QUALITY CONTROL. THEY ALSO MAY NOT
  REPORT WEATHER SUCH AS PRECIPITATION OR FOG.

ILZ001-002-007-009-015-016-024-201400-
NORTHWEST ILLINOIS

CITY           SKY/WX    TMP DP  RH WIND       PRES   REMARKS
MOLINE         CLEAR     50  43  77 NW9       29.91R
STERLING*      CLEAR     46  32  57 W8        29.87R
SAVANNA*       CLEAR     47  43  84 NW5       29.88R
$$

ILZ003-004-008-010-011-017-018-201400-
NORTH CENTRAL ILLINOIS

CITY           SKY/WX    TMP DP  RH WIND       PRES   REMARKS
ROCKFORD       PTCLDY    47  42  83 NW7       29.86R
FREEPORT*      CLEAR     47  43  84 NW9       29.87R
ROCHELLE*      CLEAR     41  40  97 CALM      29.86R
DE KALB*       CLEAR     45  42  89 W9        29.84R
PERU*          CLEAR     49  45  88 W10       29.87R
$$

ILZ005-006-012>014-019>023-201400-
NORTHEAST ILLINOIS

CITY           SKY/WX    TMP DP  RH WIND       PRES   REMARKS
CHICAGO-OHARE  PTCLDY    47  43  86 W6        29.81R
CHICAGO-MIDWAY PTCLDY    51  46  83 W6        29.82R
AURORA         CLEAR     44  41  89 W6        29.84R
LANSING*       PTCLDY    49  45  85 W9        29.83R
JOLIET*        CLEAR     48  44  87 W6        29.84R
WAUKEGAN       CLEAR     48  43  82 NW5       29.80R
DUPAGE AIRPORT CLEAR     45  42  89 CALM      29.82R
KANKAKEE*      PTCLDY    50  46  88 SW9       29.85R
WHEELING       CLEAR     48  44  86 W3        29.82R
MORRIS*        CLEAR     47  46  96 W7        29.83R
ROMEOVILLE*    CLEAR     47  46  93 W9        29.83R
NORTHERLY ISL    N/A     51  45  79 W10         N/A
$$

LMZ740>746-201400-
SOUTHERN LAKE MICHIGAN

STATION/POSITION SKY/WX   TEMP    WIND        PRES    VSBY  WAVE
                          AIR SEA DIR/SP/G                  HT/PER
                          (F)     (DEG/KT/KT) (MB)    (MI)  (FT/S)
SOUTHERN BUOY              53 55  260/ 12/ 14 1009.2R         4/ 6
WAUKEGAN HARBOR            49     280/ 10/ 15   N/A
HARRISON CRIB              51     250/ 12/ 14   N/A
BURNHAM HARBOR             51     260/  8/ 10   N/A
CALUMET HARBOR             49     230/  4/  7 1008.8R
MICHIGAN CITY              49     170/ 10/ 12   N/A
$$

ILZ025>027-034>036-040-047-049-050-058-095>099-201400-
WEST-CENTRAL ILLINOIS

CITY           SKY/WX    TMP DP  RH WIND       PRES   REMARKS
QUINCY         CLEAR     52  48  86 NW7       29.95R
GALESBURG*     CLEAR     47  44  90 W9        29.91S
MACOMB*        CLEAR     47  46  94 W7        29.95R
JACKSONVILLE*  CLEAR     53  50  88 SW6       29.93S
PITTSFIELD*    CLEAR     55  50  82 W7        29.96R
$$

ILZ028>032-037-038-041>044-048-051>054-059>061-201400-
CENTRAL ILLINOIS

CITY           SKY/WX    TMP DP  RH WIND       PRES   REMARKS
PONTIAC        CLEAR     48  46  93 W7        29.86R
BLOOMINGTON    CLEAR     50  47  89 SW10      29.89S
DECATUR        CLEAR     53  48  83 SW13      29.92R
PEORIA         CLEAR     51  45  79 W5        29.90R
LACON*         CLEAR     49  44  82 SW3       29.88R
LINCOLN*       CLEAR     54  49  82 W6        29.89S
SPRINGFIELD    CLEAR     53  48  83 W9        29.92R
TAYLORVILLE    CLEAR     52  48  87 W7        29.94R
$$

ILZ033-039-045-046-055>057-062-063-201400-
EAST-CENTRAL ILLINOIS

CITY           SKY/WX    TMP DP  RH WIND       PRES   REMARKS
CHAMPAIGN      PTCLDY    51  47  86 SW12      29.90S
DANVILLE*      MOCLDY    52  47  85 SW10      29.86S
RANTOUL*       PTCLDY    52  47  82 SW13      29.89R
MATTOON        MOCLDY    50  46  86 SW10      29.91F
PARIS*         PTCLDY    50  47  90 SW8       29.92S
$$

ILZ079-100>102-201400-
SOUTHWEST ILLINOIS

CITY           SKY/WX    TMP DP  RH WIND       PRES   REMARKS
BELLEVILLE     MOCLDY    50  49  95 VRB1      29.97R
CAHOKIA*       CLOUDY    57  49  74 SW7       29.97R
SPARTA*        CLOUDY    54  47  80 SW5       30.00R
$$

ILZ064>066-069>071-074>076-080>082-084>086-088>090-092>094-201400-
SOUTH-CENTRAL ILLINOIS

CITY           SKY/WX    TMP DP  RH WIND       PRES   REMARKS
CARBONDALE     CLOUDY    53  48  83 S7        30.00F
CAIRO*         CLOUDY    55  50  83 S3        30.05S
EFFINGHAM*     PTCLDY    51  46  82 SW5       29.95S
MARION         MOCLDY   N/A N/A N/A S7        30.01F
MT. VERNON     CLOUDY    52  46  82 SW6       30.00R
CENTRALIA*     MOCLDY    53  46  78 SW6       29.98R
SALEM*         PTCLDY    55  50  85 SW7       29.97S
METROPOLIS*    CLOUDY    52  50  94 S5        30.04R
$$

ILZ067-068-072-073-078-083-087-091-201400-
SOUTHEAST ILLINOIS

CITY           SKY/WX    TMP DP  RH WIND       PRES   REMARKS
LAWRENCEVILLE  CLOUDY    51  48  89 S7        29.99R
FLORA*         CLEAR     52  47  84 SW7       29.97S
FAIRFIELD*     CLOUDY    51  48  91 S5        29.98R
HARRISBURG*    PTCLDY    51  49  93 S3        30.02S
ROBINSON*      CLOUDY    53  49  87 SW5       29.97S
CARMI*         MOCLDY    52  50  93 S5        30.00S
$$

ABBREVIATIONS USED IN REMARKS
   TC - TEMPERATURE IN CELSIUS
  WCI - WIND CHILL INDEX
   HX - HEAT INDEX
  VSB - VISIBILITY
$$




USA.gov is the U.S. government's official web portal to all federal, state and local government web resources and services.